�������l�o���
Date,Time,MP-1(��Sv/h),MP-2(��Sv/h),MP-3(��Sv/h),MP-4(��Sv/h),MP-5(��Sv/h),MP-6(��Sv/h),MP-7(��Sv/h),MP-8(��Sv/h),����,����(m/s),���J
2013/02/22,00:00,3.1,5.6,6.6,6.1,6.2,2.7,6.5,4.1,��,2.0,��
2013/02/22,00:10,3.1,5.6,6.6,6.1,6.2,2.7,6.5,4.1,���k��,2.4,��
2013/02/22,00:20,3.1,5.6,6.6,6.0,6.2,2.7,6.5,4.1,���k��,2.2,��
2013/02/22,00:30,3.1,5.6,6.6,6.0,6.2,2.7,6.5,4.1,�k�k��,1.4,��
2013/02/22,00:40,3.1,5.6,6.6,6.0,6.2,2.7,6.5,4.1,�k��,2.1,��
2013/02/22,00:50,3.1,5.6,6.6,6.0,6.2,2.7,6.5,4.1,���k��,1.9,��
2013/02/22,01:00,3.1,5.6,6.6,6.1,6.2,2.7,6.5,4.1,���k��,1.6,��
2013/02/22,01:10,3.1,5.6,6.6,6.0,6.2,2.7,6.5,4.1,��,1.3,��
2013/02/22,01:20,3.1,5.6,6.6,6.0,6.2,2.7,6.5,4.1,-,CALM,��
2013/02/22,01:30,3.1,5.6,6.5,6.0,6.2,2.7,6.5,4.1,-,CALM,��
2013/02/22,01:40,3.1,5.6,6.6,6.0,6.2,2.7,6.5,4.1,�k�k��,0.5,��
2013/02/22,01:50,3.1,5.6,6.6,6.0,6.2,2.7,6.5,4.1,-,CALM,��
2013/02/22,02:00,3.1,5.6,6.6,6.0,6.2,2.7,6.5,4.1,��,0.8,��
2013/02/22,02:10,3.1,5.6,6.6,6.0,6.2,2.7,6.5,4.1,��쐼,1.3,��
2013/02/22,02:20,3.1,5.6,6.5,6.0,6.2,2.7,6.5,4.1,��쐼,1.7,��
2013/02/22,02:30,3.1,5.6,6.5,6.0,6.2,2.7,6.5,4.1,�쐼,1.3,��
2013/02/22,02:40,3.1,5.6,6.5,6.0,6.2,2.7,6.5,4.1,���쐼,1.2,��
2013/02/22,02:50,3.1,5.6,6.6,6.0,6.2,2.7,6.5,4.1,���쐼,1.6,��
2013/02/22,03:00,3.1,5.6,6.5,6.0,6.2,2.7,6.5,4.1,��,1.0,��
2013/02/22,03:10,3.1,5.6,6.5,6.0,6.2,2.7,6.5,4.1,���쐼,0.8,��
2013/02/22,03:20,3.1,5.6,6.5,6.0,6.2,2.7,6.5,4.1,�쐼,0.8,��
2013/02/22,03:30,3.1,5.6,6.5,6.0,6.2,2.7,6.5,4.1,��,1.2,��
2013/02/22,03:40,3.1,5.6,6.5,6.0,6.2,2.7,6.5,4.1,��,1.5,��
2013/02/22,03:50,3.1,5.6,6.5,6.0,6.2,2.7,6.5,4.1,��,1.6,��
2013/02/22,04:00,3.1,5.6,6.5,6.0,6.2,2.7,6.5,4.1,���쐼,2.1,��
2013/02/22,04:10,3.1,5.6,6.5,6.0,6.2,2.7,6.5,4.1,�쐼,1.8,��
2013/02/22,04:20,3.1,5.6,6.5,6.0,6.2,2.7,6.5,4.1,�쐼,2.6,��
2013/02/22,04:30,3.1,5.6,6.5,6.0,6.2,2.7,6.5,4.1,�쐼,2.4,��
2013/02/22,04:40,3.1,5.6,6.5,6.0,6.2,2.7,6.5,4.1,�쐼,2.7,��
2013/02/22,04:50,3.1,5.6,6.5,6.0,6.2,2.7,6.5,4.1,���쐼,2.8,��
2013/02/22,05:00,3.1,5.6,6.5,6.0,6.2,2.7,6.5,4.1,��,2.2,��
2013/02/22,05:10,3.1,5.6,6.5,6.0,6.2,2.7,6.4,4.1,��,2.9,��
2013/02/22,05:20,3.1,5.6,6.5,6.0,6.2,2.7,6.5,4.1,��,1.3,��
2013/02/22,05:30,3.1,5.6,6.5,6.0,6.2,2.7,6.5,4.1,���쐼,2.3,��
2013/02/22,05:40,3.1,5.6,6.5,6.0,6.2,2.7,6.5,4.1,�쐼,2.1,��
2013/02/22,05:50,3.1,5.6,6.5,6.0,6.2,2.7,6.5,4.1,���쐼,3.0,��
2013/02/22,06:00,3.1,5.6,6.5,6.0,6.2,2.7,6.5,4.1,��,3.0,��
2013/02/22,06:10,3.1,5.6,6.5,6.0,6.2,2.7,6.4,4.1,��,3.1,��
2013/02/22,06:20,3.1,5.6,6.5,6.0,6.2,2.7,6.4,4.1,��,3.8,��
2013/02/22,06:30,3.1,5.5,6.5,6.0,6.2,2.7,6.4,4.1,��,2.9,��
2013/02/22,06:40,3.1,5.6,6.5,6.0,6.2,2.7,6.5,4.1,���k��,2.4,��
2013/02/22,06:50,3.1,5.6,6.5,6.0,6.2,2.7,6.5,4.1,���k��,2.6,��
2013/02/22,07:00,3.1,5.6,6.5,6.0,6.2,2.7,6.5,4.1,���쐼,2.6,��
2013/02/22,07:10,3.1,5.6,6.5,6.0,6.2,2.7,6.5,4.1,��,2.3,��
2013/02/22,07:20,3.1,5.6,6.5,6.0,6.2,2.7,6.5,4.1,���쐼,3.2,��
2013/02/22,07:30,3.1,5.6,6.5,6.0,6.2,2.7,6.5,4.1,���쐼,2.7,��
2013/02/22,07:40,3.1,5.6,6.5,6.0,6.2,2.7,6.5,4.1,��,2.6,��
2013/02/22,07:50,3.1,5.6,6.5,6.0,6.2,2.7,6.5,4.1,���쐼,2.4,��
2013/02/22,08:00,3.1,5.6,6.6,6.0,6.2,2.7,6.5,4.1,��,1.5,��
2013/02/22,08:10,3.1,5.6,6.5,6.1,6.2,2.7,6.5,4.1,�쐼,1.1,��
2013/02/22,08:20,3.1,5.6,6.6,6.1,6.2,2.7,6.5,4.1,���쐼,0.8,��
2013/02/22,08:30,3.1,5.6,6.6,6.1,6.2,2.7,6.5,4.1,��,0.5,��
2013/02/22,08:40,3.1,5.6,6.6,6.1,6.2,2.7,6.5,4.1,-,CALM,��
2013/02/22,08:50,3.1,5.6,6.6,6.1,6.2,2.7,6.5,4.1,�k�k��,0.7,��
2013/02/22,09:00,3.1,5.6,6.6,6.1,6.2,2.7,6.5,4.1,-,CALM,��
2013/02/22,09:10,3.1,5.6,6.6,6.1,6.2,2.7,6.5,4.1,�k�k��,1.1,��
2013/02/22,09:20,3.1,5.6,6.6,6.1,6.2,2.7,6.5,4.1,�k�k��,0.7,��
2013/02/22,09:30,3.1,5.6,6.6,6.1,6.2,2.7,6.5,4.1,�k,1.1,��
2013/02/22,09:40,-,5.6,6.6,6.1,6.2,2.7,6.5,4.1,�k��,1.2,��
2013/02/22,09:50,-,5.6,6.6,6.1,6.2,2.7,6.5,4.1,���k��,1.9,��
2013/02/22,10:00,-,5.6,6.6,6.1,6.2,2.7,6.5,4.1,���k��,2.0,��
2013/02/22,10:10,-,5.6,6.6,6.1,6.2,2.7,6.5,4.1,���k��,2.2,��
2013/02/22,10:20,-,5.6,6.6,6.1,6.2,2.7,6.5,4.1,���k��,2.1,��
2013/02/22,10:30,-,5.6,6.6,6.1,6.2,2.7,6.5,4.1,��,1.3,��
2013/02/22,10:40,-,5.6,6.6,6.1,6.2,2.7,6.5,4.1,��,1.8,��
2013/02/22,10:50,-,5.6,6.6,6.1,6.2,2.7,6.5,4.1,��,2.4,�L
2013/02/22,11:00,-,5.6,6.6,6.1,6.2,2.7,6.5,4.1,���쓌,2.4,�L
2013/02/22,11:10,-,5.6,6.6,6.1,6.2,2.7,6.5,4.1,���쓌,2.7,��
2013/02/22,11:20,-,5.6,6.6,6.1,6.3,2.7,6.5,4.1,��,3.8,��
2013/02/22,11:30,-,5.6,6.6,6.1,6.3,2.7,6.5,4.1,���쓌,3.5,��
2013/02/22,11:40,-,5.6,6.6,6.1,6.3,2.7,6.5,4.1,��,4.5,��
2013/02/22,11:50,-,5.6,6.6,6.1,6.3,2.7,6.5,4.1,��,4.4,��
2013/02/22,12:00,-,5.6,6.6,6.1,6.3,2.8,6.5,4.1,��,4.3,��
2013/02/22,12:10,-,5.6,6.6,6.1,6.3,2.8,6.5,4.1,���쓌,5.1,��
2013/02/22,12:20,-,5.6,6.6,6.1,6.3,2.7,6.5,4.1,��,4.1,��
2013/02/22,12:30,-,5.6,6.6,6.1,6.3,2.8,6.5,4.1,���쓌,4.9,��
2013/02/22,12:40,-,5.6,6.6,6.1,6.3,2.7,6.5,4.1,��,5.0,��
2013/02/22,12:50,-,5.6,6.6,6.1,6.3,2.7,6.5,4.1,��,3.3,��
2013/02/22,13:00,-,5.6,6.6,6.1,6.3,2.7,6.5,4.1,��,3.8,��
2013/02/22,13:10,-,5.6,6.6,6.1,6.3,2.7,6.5,4.1,��,6.0,��
2013/02/22,13:20,-,5.6,6.6,6.1,6.3,2.7,6.5,4.1,��,9.6,��
2013/02/22,13:30,-,5.6,6.6,6.1,6.3,2.7,6.5,4.1,��,7.9,��
2013/02/22,13:40,-,5.6,6.6,6.1,6.3,2.7,6.5,4.1,��,9.6,��
2013/02/22,13:50,-,5.6,6.6,6.1,6.3,2.7,6.5,4.1,��,10.1,��
2013/02/22,14:00,-,5.6,6.6,6.1,6.3,2.8,6.5,4.1,���쐼,8.2,��
2013/02/22,14:10,-,5.6,6.6,6.1,6.3,2.8,6.5,4.1,��,8.2,��
2013/02/22,14:20,-,5.6,6.6,6.1,6.3,2.8,6.5,4.1,��,6.6,��
2013/02/22,14:30,-,5.6,6.6,6.1,6.3,2.8,6.5,4.1,��,8.8,��
2013/02/22,14:40,-,5.6,6.6,6.1,6.3,2.8,6.5,4.1,��,8.9,��
2013/02/22,14:50,-,5.6,6.6,6.1,6.3,2.8,6.5,4.1,��,10.7,��
2013/02/22,15:00,-,5.6,6.6,6.1,6.3,2.7,6.5,4.1,��,9.7,��
2013/02/22,15:10,-,5.6,6.6,6.1,6.3,2.7,6.5,4.1,��,11.8,��
2013/02/22,15:20,-,5.6,6.6,6.1,6.3,2.7,6.5,4.1,��,10.8,��
2013/02/22,15:30,-,5.6,6.6,6.1,6.3,2.7,6.5,4.1,��,9.7,��
2013/02/22,15:40,-,5.6,6.6,6.1,6.3,2.7,6.5,4.1,��,10.2,��
2013/02/22,15:50,-,5.6,6.6,6.1,6.3,2.7,6.5,4.1,��,10.1,��
2013/02/22,16:00,-,5.6,6.6,6.1,6.3,2.7,6.5,4.1,��,7.1,��
2013/02/22,16:10,-,5.6,6.6,6.1,6.3,2.8,6.5,4.1,���k��,7.7,��
2013/02/22,16:20,-,5.6,6.6,6.1,6.3,2.7,6.5,4.1,��,6.0,��
2013/02/22,16:30,-,5.6,6.6,6.1,6.3,2.8,6.5,4.1,��,6.3,��
2013/02/22,16:40,3.1,5.6,6.6,6.1,6.3,2.7,6.5,4.1,��,6.0,��
2013/02/22,16:50,3.1,5.6,6.6,6.1,6.3,2.7,6.5,4.1,��,6.0,��
2013/02/22,17:00,3.1,5.6,6.6,6.1,6.3,2.7,6.5,4.1,��,5.1,��
2013/02/22,17:10,3.1,5.6,6.6,6.1,6.3,2.7,6.5,4.1,��,5.6,��
2013/02/22,17:20,3.1,5.6,6.6,6.1,6.3,2.7,6.5,4.1,��,5.5,��
2013/02/22,17:30,3.1,5.6,6.6,6.1,6.3,2.8,6.5,4.1,��,4.9,��
2013/02/22,17:40,3.1,5.6,6.6,6.1,6.3,2.7,6.5,4.1,��,4.2,��
2013/02/22,17:50,3.1,5.6,6.6,6.1,6.3,2.7,6.5,4.1,�쐼,3.4,��
2013/02/22,18:00,3.1,5.6,6.6,6.1,6.3,2.7,6.5,4.1,��쐼,4.6,��
2013/02/22,18:10,3.1,5.6,6.6,6.1,6.3,2.7,6.5,4.1,��쐼,5.6,��
2013/02/22,18:20,3.1,5.6,6.6,6.1,6.3,2.7,6.5,4.1,��쐼,8.2,��
2013/02/22,18:30,3.1,5.6,6.6,6.1,6.3,2.7,6.5,4.1,��쐼,8.9,��
2013/02/22,18:40,3.1,5.6,6.6,6.1,6.3,2.7,6.5,4.1,��쐼,9.1,��
2013/02/22,18:50,3.1,5.6,6.6,6.1,6.3,2.7,6.5,4.1,��쐼,9.1,��
2013/02/22,19:00,3.1,5.6,6.6,6.1,6.3,2.7,6.5,4.1,��쐼,7.9,��
2013/02/22,19:10,3.1,5.6,6.6,6.1,6.3,2.7,6.5,4.1,��쐼,8.0,��
2013/02/22,19:20,3.1,5.6,6.6,6.1,6.3,2.7,6.5,4.1,�쐼,6.8,��
2013/02/22,19:30,3.1,5.6,6.6,6.1,6.3,2.7,6.5,4.1,�쐼,6.6,��
2013/02/22,19:40,3.1,5.6,6.6,6.1,6.3,2.7,6.5,4.1,�쐼,5.5,��
2013/02/22,19:50,3.1,5.6,6.6,6.1,6.3,2.7,6.5,4.1,�쐼,5.7,��
2013/02/22,20:00,3.1,5.6,6.6,6.1,6.3,2.7,6.5,4.1,�쐼,6.3,��
2013/02/22,20:10,3.1,5.6,6.6,6.1,6.3,2.7,6.5,4.1,�쐼,6.7,��
2013/02/22,20:20,3.1,5.6,6.6,6.1,6.3,2.7,6.5,4.1,���쐼,7.4,��
2013/02/22,20:30,3.1,5.6,6.6,6.1,6.3,2.7,6.5,4.1,���쐼,6.7,��
2013/02/22,20:40,3.1,5.6,6.6,6.1,6.3,2.7,6.5,4.1,���쐼,7.4,��
2013/02/22,20:50,3.1,5.6,6.6,6.1,6.3,2.7,6.5,4.1,���쐼,6.4,��
2013/02/22,21:00,3.1,5.6,6.6,6.1,6.3,2.7,6.5,4.1,���쐼,6.4,��
2013/02/22,21:10,3.1,5.6,6.6,6.1,6.3,2.7,6.5,4.1,���쐼,6.0,��
2013/02/22,21:20,3.1,5.6,6.6,6.1,6.3,2.7,6.5,4.1,���쐼,5.8,��
2013/02/22,21:30,3.1,5.6,6.6,6.1,6.3,2.7,6.5,4.1,���쐼,5.4,��
2013/02/22,21:40,3.1,5.6,6.6,6.1,6.3,2.7,6.5,4.1,���쐼,6.0,��
2013/02/22,21:50,3.1,5.6,6.6,6.1,6.3,2.7,6.5,4.1,���쐼,5.5,��
2013/02/22,22:00,3.1,5.6,6.6,6.1,6.3,2.7,6.5,4.1,���쐼,6.8,��
2013/02/22,22:10,3.1,5.6,6.6,6.1,6.3,2.7,6.5,4.1,���쐼,6.3,��
2013/02/22,22:20,3.1,5.6,6.6,6.1,6.3,2.7,6.5,4.1,�쐼,7.4,��
2013/02/22,22:30,3.1,5.6,6.6,6.1,6.3,2.7,6.5,4.1,�쐼,7.5,��
2013/02/22,22:40,3.1,5.6,6.6,6.1,6.3,2.7,6.5,4.1,�쐼,9.0,��
2013/02/22,22:50,3.1,5.6,6.6,6.1,6.3,2.7,6.5,4.1,�쐼,8.9,��
2013/02/22,23:00,3.1,5.6,6.6,6.1,6.3,2.7,6.5,4.1,�쐼,9.3,�L
2013/02/22,23:10,3.1,5.6,6.6,6.1,6.3,2.7,6.5,4.1,�쐼,10.8,�L
2013/02/22,23:20,3.1,5.6,6.6,6.1,6.3,2.7,6.5,4.1,���쐼,8.9,��
2013/02/22,23:30,3.1,5.6,6.6,6.1,6.3,2.7,6.5,4.1,���쐼,9.3,��
2013/02/22,23:40,3.1,5.6,6.6,6.1,6.3,2.7,6.5,4.1,���쐼,9.1,��
2013/02/22,23:50,3.1,5.6,6.6,6.1,6.3,2.7,6.5,4.1,���쐼,8.5,��
